This demonstration page uses our WeatherBlox Daily Observations layout. Learn more.

Left ArrowRight Arrow

Hourly Observations for October 2, 2022

Temp ( °F °C ) Dew Point ( °F °C ) Humidity (%) Winds ( mph kmh ) Pressure ( in mb ) Visibility ( mi km ) Precip ( " mm )
12:52 am 00:52 Mostly Cloudy 63 17.2 44 6.7 50 50 SE 12 19 30.21 1023 10 16 0.00 0.00
1:52 am 01:52 Mostly Cloudy 62 16.7 44 6.7 52 52 SE 8 13 30.22 1023 10 16 0.00 0.00
2:52 am 02:52 Mostly Cloudy 62 16.7 44 6.7 52 52 SSE 10 17 30.22 1023 10 16 0.00 0.00
3:52 am 03:52 Mostly Cloudy 61 16.1 44 6.7 54 54 SSE 13 20 30.22 1023 10 16 0.00 0.00
4:52 am 04:52 Partly Cloudy 59 15 44 6.7 58 58 SSE 8 13 30.22 1023 10 16 0.00 0.00
5:52 am 05:52 Mostly Cloudy 54 12.2 44 6.7 69 69 SE 7 11 30.24 1024 10 16 0.00 0.00
6:52 am 06:52 Partly Cloudy 54 12.2 44 6.7 69 69 E 5 7 30.27 1025 10 16 0.00 0.00
7:52 am 07:52 Mostly Cloudy 54 12.2 45 7.2 71 71 Calm 30.29 1026 10 16 0.00 0.00
8:52 am 08:52 Mostly Cloudy 57 13.9 46 7.8 67 67 ESE 7 11 30.31 1026 10 16 0.01 0.13
9:52 am 09:52 Mostly Cloudy with Smoke 59 15 46 7.8 62 62 ESE 6 9 30.32 1027 10 16 0.00 0.00
10:52 am 10:52 Mostly Cloudy 63 17.2 47 8.3 56 56 S 8 13 30.32 1027 10 16 0.00 0.00
11:52 am 11:52 Partly Cloudy 66 18.9 48 8.9 52 52 S 6 9 30.31 1026 10 16 0.00 0.00
12:52 pm 12:52 Partly Cloudy 73 22.8 46 7.8 38 38 S 12 19 30.28 1025 10 16 0.00 0.00
1:52 pm 13:52 Mostly Sunny 75 23.9 44 6.7 33 33 S 13 20 30.26 1025 10 16 0.00 0.00
2:52 pm 14:52 Mostly Sunny 76 24.4 45 7.2 33 33 SSE 14 22 30.24 1024 10 16 0.00 0.00
3:52 pm 15:52 Partly Cloudy 78 25.6 46 7.8 32 32 SE 13 20 30.22 1023 10 16 0.00 0.00
4:52 pm 16:52 Partly Cloudy 79 26.1 43 6.1 28 28 SSE 14 22 30.21 1023 10 16 0.00 0.00
5:52 pm 17:52 Mostly Cloudy 78 25.6 44 6.7 30 30 SE 16 26 30.20 1023 10 16 0.00 0.00
6:52 pm 18:52 Partly Cloudy 73 22.8 43 6.1 34 34 SE 12 19 30.21 1023 10 16 0.00 0.00
7:52 pm 19:52 Mostly Cloudy 70 21.1 45 7.2 41 41 SE 10 17 30.22 1023 10 16 0.00 0.00
8:52 pm 20:52 Partly Cloudy 66 18.9 45 7.2 47 47 SSE 12 19 30.23 1024 10 16 0.00 0.00
9:52 pm 21:52 Partly Cloudy 65 18.3 45 7.2 48 48 SSE 8 13 30.24 1024 10 16 0.00 0.00
10:52 pm 22:52 Partly Cloudy 64 17.8 46 7.8 52 52 S 6 9 30.24 1024 10 16 0.00 0.00
11:52 pm 23:52 Partly Cloudy 60 15.6 45 7.2 57 57 SSE 7 11 30.24 1024 10 16 0.00 0.00

Powered by AerisWeather